ATLAS CENTAUR R/B

Last updated on Mon Sep 21 2026 00:02:07 GMT+0000 (Coordinated Universal Time)

1 06155U 72065B 26263.32413961 .00000569 00000+0 79989-4 0 9990 2 06155 35.0010 244.7383 0033809 209.8337 150.0436 14.78050288870078
UTC large
Height (km)
Speed (km/s)
/
Latitude / Longitude
Inclination (degrees)
Orbital Period (minutes)
Azimuth
Elevation
Range (km)
Doppler Factor

Next 0 passes for location: London (51.5072 / 0.1276)

No passes found over London.
ATLAS CENTAUR R/B